• In Hungary
  • List of Countries
  • For 7 days
  • Water Temperature
  • Satellite Maps
  • Weather Map
  • News
  • Weather Widgets
  • user-avatar
    Login

    Hourly Weather Pucón

    Today, 18 February, Sunday

    Time Temperature Precipitation Wind Pressure Humidity
    00:00 +20°C° 0.2 mm 1 mps 729 mmHg 98%
    01:00 +20°C° 0.2 mm 1 mps 729 mmHg 98%
    02:00 +19°C° 0.2 mm 1 mps 729 mmHg 98%
    03:00 +19°C° 0.2 mm 1 mps 729 mmHg 98%
    04:00 +19°C° 0.2 mm 1 mps 728 mmHg 98%
    05:00 +19°C° 0.1 mm 1 mps 729 mmHg 98%
    06:00 +18°C° 0.1 mm 1 mps 729 mmHg 97%
    07:00 +18°C° 0.1 mm 1 mps 729 mmHg 97%
    08:00 +17°C° 0.1 mm 2 mps 729 mmHg 92%
    09:00 +18°C° 0.1 mm 2 mps 729 mmHg 87%
    10:00 +18°C° 0.1 mm 2 mps 729 mmHg 82%
    11:00 +19°C° 0.1 mm 2 mps 729 mmHg 78%
    12:00 +19°C° 0.1 mm 2 mps 729 mmHg 73%
    13:00 +20°C° 0.1 mm 2 mps 729 mmHg 68%
    14:00 +20°C° 0.1 mm 2 mps 729 mmHg 67%
    15:00 +20°C° 0.1 mm 2 mps 728 mmHg 66%
    16:00 +20°C° 0.1 mm 2 mps 728 mmHg 65%
    17:00 +19°C° 0.1 mm 2 mps 729 mmHg 72%
    18:00 +18°C° 0.1 mm 1 mps 729 mmHg 79%
    19:00 +16°C° 0.1 mm 1 mps 729 mmHg 85%
    20:00 +15°C° 0 mm 1 mps 729 mmHg 89%
    21:00 +14°C° 0 mm 1 mps 729 mmHg 93%
    22:00 +13°C° 0 mm 1 mps 729 mmHg 96%
    23:00 +13°C° 0 mm 1 mps 729 mmHg 96%

    Tomorrow, 19 February, Monday

    Time Temperature Precipitation Wind Pressure Humidity
    00:00 +13°C° 0 mm 1 mps 729 mmHg 97%
    01:00 +13°C° 0 mm 1 mps 729 mmHg 97%
    02:00 +13°C° 0.1 mm 1 mps 729 mmHg 97%
    03:00 +13°C° 0.1 mm 1 mps 729 mmHg 96%
    04:00 +13°C° 0.1 mm 1 mps 729 mmHg 96%
    05:00 +14°C° 0.1 mm 1 mps 729 mmHg 94%
    06:00 +14°C° 0.1 mm 1 mps 730 mmHg 91%
    07:00 +15°C° 0.1 mm 1 mps 730 mmHg 89%
    08:00 +16°C° 0 mm 1 mps 730 mmHg 78%
    09:00 +18°C° 0 mm 2 mps 730 mmHg 67%
    10:00 +20°C° 0 mm 2 mps 730 mmHg 56%
    11:00 +21°C° 0 mm 2 mps 730 mmHg 50%
    12:00 +22°C° 0 mm 3 mps 729 mmHg 44%
    13:00 +24°C° 0 mm 3 mps 729 mmHg 38%
    14:00 +21°C° 0.4 mm 3 mps 729 mmHg 52%
    15:00 +19°C° 0.4 mm 3 mps 729 mmHg 66%
    16:00 +17°C° 0.4 mm 2 mps 728 mmHg 80%
    17:00 +16°C° 0.7 mm 2 mps 729 mmHg 85%
    18:00 +15°C° 0.7 mm 1 mps 729 mmHg 91%
    19:00 +14°C° 0.7 mm 1 mps 730 mmHg 96%
    20:00 +13°C° 0 mm 1 mps 730 mmHg 97%
    21:00 +12°C° 0 mm 1 mps 730 mmHg 97%
    22:00 +10°C° 0 mm 0 mps 731 mmHg 98%
    23:00 +10°C° 0.2 mm 0 mps 731 mmHg 98%

    Day after tomorrow, 20 February, Tuesday

    Time Temperature Precipitation Wind Pressure Humidity
    00:00 +10°C° 0.2 mm 0 mps 731 mmHg 98%
    01:00 +10°C° 0.2 mm 0 mps 731 mmHg 98%
    02:00 +10°C° 0.1 mm 0 mps 731 mmHg 98%
    03:00 +10°C° 0.1 mm 0 mps 731 mmHg 98%
    04:00 +10°C° 0.1 mm 0 mps 731 mmHg 98%
    05:00 +11°C° 0 mm 0 mps 732 mmHg 97%
    06:00 +12°C° 0 mm 0 mps 732 mmHg 95%
    07:00 +13°C° 0 mm 0 mps 733 mmHg 93%
    08:00 +16°C° 0 mm 1 mps 733 mmHg 82%
    09:00 +19°C° 0 mm 1 mps 733 mmHg 71%
    10:00 +21°C° 0 mm 1 mps 733 mmHg 60%
    11:00 +21°C° 0 mm 2 mps 733 mmHg 55%
    12:00 +24°C° 0 mm 2 mps 732 mmHg 50%
    13:00 +25°C° 0 mm 2 mps 732 mmHg 45%
    14:00 +25°C° 0 mm 2 mps 732 mmHg 44%
    15:00 +25°C° 0 mm 2 mps 732 mmHg 43%
    16:00 +25°C° 0 mm 2 mps 732 mmHg 41%
    17:00 +21°C° 0 mm 2 mps 732 mmHg 52%
    18:00 +20°C° 0 mm 1 mps 732 mmHg 62%
    19:00 +15°C° 0 mm 0 mps 732 mmHg 73%
    20:00 +15°C° 0 mm 1 mps 732 mmHg 76%
    21:00 +14°C° 0 mm 1 mps 733 mmHg 79%
    22:00 +13°C° 0 mm 1 mps 733 mmHg 82%
    23:00 +13°C° 0 mm 1 mps 732 mmHg 84%

    21 February, Wednesday

    Time Temperature Precipitation Wind Pressure Humidity
    00:00 +12°C° 0 mm 1 mps 732 mmHg 85%
    01:00 +12°C° 0 mm 1 mps 732 mmHg 87%
    02:00 +12°C° 0 mm 1 mps 732 mmHg 88%
    03:00 +12°C° 0 mm 1 mps 731 mmHg 90%
    04:00 +12°C° 0 mm 1 mps 731 mmHg 91%
    05:00 +12°C° 0 mm 0 mps 731 mmHg 86%
    06:00 +14°C° 0 mm 0 mps 732 mmHg 82%
    07:00 +15°C° 0 mm 0 mps 732 mmHg 77%
    08:00 +19°C° 0 mm 1 mps 732 mmHg 66%
    09:00 +22°C° 0 mm 1 mps 732 mmHg 54%
    10:00 +24°C° 0 mm 2 mps 732 mmHg 42%
    11:00 +25°C° 0 mm 2 mps 732 mmHg 37%
    12:00 +26°C° 0 mm 2 mps 731 mmHg 32%
    13:00 +27°C° 0 mm 3 mps 731 mmHg 27%
    14:00 +26°C° 0 mm 3 mps 731 mmHg 28%
    15:00 +26°C° 0 mm 3 mps 731 mmHg 29%
    16:00 +25°C° 0 mm 3 mps 731 mmHg 30%
    17:00 +21°C° 0.1 mm 2 mps 731 mmHg 43%
    18:00 +20°C° 0.1 mm 1 mps 731 mmHg 56%
    19:00 +16°C° 0.1 mm 1 mps 732 mmHg 68%
    20:00 +15°C° 0.3 mm 1 mps 732 mmHg 73%
    21:00 +14°C° 0.3 mm 1 mps 732 mmHg 78%
    22:00 +14°C° 0.3 mm 1 mps 732 mmHg 82%
    23:00 +14°C° 0.4 mm 1 mps 732 mmHg 83%

    22 February, Thursday

    Time Temperature Precipitation Wind Pressure Humidity
    00:00 +14°C° 0.4 mm 1 mps 732 mmHg 83%
    01:00 +14°C° 0.4 mm 1 mps 731 mmHg 83%
    02:00 +13°C° 1.3 mm 0 mps 731 mmHg 86%
    03:00 +13°C° 1.3 mm 0 mps 731 mmHg 89%
    04:00 +13°C° 1.3 mm 0 mps 731 mmHg 92%
    05:00 +13°C° 1.9 mm 0 mps 732 mmHg 94%
    06:00 +13°C° 1.9 mm 0 mps 732 mmHg 96%
    07:00 +13°C° 1.9 mm 0 mps 732 mmHg 97%
    08:00 +14°C° 0.7 mm 0 mps 733 mmHg 96%
    09:00 +15°C° 0.7 mm 0 mps 733 mmHg 96%
    10:00 +15°C° 0.7 mm 0 mps 733 mmHg 95%
    11:00 +19°C° 0.2 mm 1 mps 733 mmHg 86%
    12:00 +20°C° 0.2 mm 1 mps 733 mmHg 78%
    13:00 +22°C° 0.2 mm 1 mps 734 mmHg 69%
    14:00 +22°C° 0.1 mm 1 mps 734 mmHg 67%
    15:00 +22°C° 0.1 mm 1 mps 734 mmHg 65%
    16:00 +23°C° 0.1 mm 1 mps 733 mmHg 62%
    17:00 +21°C° 0.1 mm 1 mps 734 mmHg 72%
    18:00 +19°C° 0.1 mm 1 mps 734 mmHg 82%
    19:00 +15°C° 0.1 mm 0 mps 734 mmHg 93%
    20:00 +14°C° 0 mm 0 mps 734 mmHg 94%
    21:00 +13°C° 0 mm 0 mps 735 mmHg 96%
    22:00 +14°C° 0 mm 1 mps 735 mmHg 97%
    23:00 +14°C° 0 mm 1 mps 735 mmHg 97%

    23 February, Friday

    Time Temperature Precipitation Wind Pressure Humidity
    00:00 +13°C° 0 mm 1 mps 735 mmHg 97%
    01:00 +13°C° 0 mm 1 mps 734 mmHg 97%
    02:00 +13°C° 0 mm 1 mps 734 mmHg 97%
    03:00 +12°C° 0 mm 1 mps 734 mmHg 96%
    04:00 +12°C° 0 mm 1 mps 734 mmHg 96%
    05:00 +13°C° 0 mm 1 mps 734 mmHg 91%
    06:00 +14°C° 0 mm 1 mps 734 mmHg 87%
    07:00 +15°C° 0 mm 1 mps 735 mmHg 82%
    08:00 +20°C° 0 mm 1 mps 735 mmHg 67%
    09:00 +24°C° 0 mm 1 mps 735 mmHg 53%
    10:00 +27°C° 0 mm 1 mps 734 mmHg 38%
    11:00 +29°C° 0 mm 1 mps 734 mmHg 34%
    12:00 +30°C° 0 mm 1 mps 734 mmHg 30%
    13:00 +32°C° 0 mm 1 mps 733 mmHg 27%
    14:00 +31°C° 0 mm 1 mps 733 mmHg 28%
    15:00 +31°C° 0 mm 2 mps 733 mmHg 29%
    16:00 +31°C° 0 mm 2 mps 732 mmHg 30%
    17:00 +27°C° 0 mm 1 mps 732 mmHg 42%
    18:00 +24°C° 0 mm 1 mps 732 mmHg 55%
    19:00 +21°C° 0 mm 1 mps 732 mmHg 67%
    20:00 +20°C° 0 mm 1 mps 732 mmHg 68%
    21:00 +19°C° 0 mm 1 mps 733 mmHg 69%
    22:00 +18°C° 0 mm 1 mps 733 mmHg 70%
    23:00 +16°C° 0 mm 1 mps 732 mmHg 68%
    Show more